EUTELSAT HOTBIRD 13E

Last updated on Mon Jul 28 2025 00:02:43 GMT+0000 (Coordinated Universal Time)

1 28946U 06007B 25208.53716797 -.00000078 00000+0 00000+0 0 9998 2 28946 1.2309 89.4740 0006408 181.6322 159.3439 0.98117102 71055
UTC large
Height (km)
Speed (km/s)
/
Latitude / Longitude
Inclination (degrees)
Orbital Period (minutes)
Azimuth
Elevation
Range (km)
Doppler Factor

Next 0 passes for location: London (51.5072 / 0.1276)

Sorry there are no passes over London.
EUTELSAT HOTBIRD 13E